Waarnemingen

Advertentie
Mijn weer
Bale-Mulhouse, Frankrijk (7299): temperatuur & dauwpunt: 20.05.2019 15:00:00 - 26.05.2019 15:00:00 (CEST)Bale-Mulhouse, Frankrijk (7299): temperatuur 5cm: 20.05.2019 15:00:00 - 26.05.2019 15:00:00 (CEST)Bale-Mulhouse, Frankrijk (7299): temperatuur -20cm & temperatuur -100cm: 20.05.2019 15:00:00 - 26.05.2019 15:00:00 (CEST)Bale-Mulhouse, Frankrijk (7299): windsnelheid & windstoten: 20.05.2019 15:00:00 - 26.05.2019 15:00:00 (CEST)Bale-Mulhouse, Frankrijk (7299): windrichting: 20.05.2019 15:00:00 - 26.05.2019 15:00:00 (CEST)Bale-Mulhouse, Frankrijk (7299): luchtdruk: 20.05.2019 15:00:00 - 26.05.2019 15:00:00 (CEST)Bale-Mulhouse, Frankrijk (7299): zicht: 20.05.2019 15:00:00 - 26.05.2019 15:00:00 (CEST)Bale-Mulhouse, Frankrijk (7299): neerslag: 20.05.2019 15:00:00 - 26.05.2019 15:00:00 (CEST)
Datum & Tijd tt [°C] td [°C] tt 5cm [°C] tt -20cm [°C] tt -100cm [°C] ff [km/u] ff [kn] fx [km/u] fx [kn] dd ppp [hPa] vv [km] rr [mm]
26.05.2019 15:00:00 22,1 8,2 26,4 18,1 14,5 10 5 19 11 NW 1014,9 30 0,0
26.05.2019 14:00:00 21,6 9,2 26,1 17,7 14,5 5 3 16 9 N 1015,5 30 0,0
26.05.2019 13:00:00 21,1 10,9 25,2 17,3 14,5 3 2 16 8 ZO 1016,1 30 0,0
26.05.2019 12:00:00 19,5 11,5 26,1 17,0 14,5 5 3 16 9 NNW 1016,8 30 0,0
26.05.2019 11:00:00 18,6 11,9 21,8 16,8 14,5 3 2 14 7 OZO 1017,2 30 0,0
26.05.2019 10:00:00 17,0 11,7 17,9 16,7 14,5 4 2 10 6 ZO 1017,7 25 0,0
26.05.2019 09:00:00 15,1 11,3 16,6 16,8 14,5 3 2 10 5 Z 1018,1 15 0,0
26.05.2019 08:00:00 12,6 11,7 12,5 17,0 14,4 4 2 9 5 OZO 1018,3 4,0 0,0
26.05.2019 07:00:00 10,4 10,2 5,7 17,2 14,4 2 1 5 3 ZZW 1018,5 2,5 0,0
26.05.2019 06:00:00 8,2 7,8 5,4 17,4 14,4 0 0 4 2 N 1018,5 8 0,0
26.05.2019 05:00:00 9,6 9,3 5,5 17,6 14,4 2 1 4 2 ZO 1018,2 12 0,0
26.05.2019 04:00:00 9,4 8,9 6,4 17,8 14,4 0 0 7 4 N 1018,2 2,9 0,0
26.05.2019 03:00:00 10,5 10,0 7,0 18,0 14,3 5 3 10 5 Z 1018,0 8 0,0
26.05.2019 02:00:00 11,3 10,8 8,0 18,2 14,3 5 3 12 7 OZO 1018,1 9 0,0
26.05.2019 01:00:00 12,2 11,3 9,0 18,3 14,3 4 2 8 4 ZW 1018,2 8 0,0
26.05.2019 00:00:00 13,7 11,6 12,0 18,5 14,3 6 3 17 9 ZZO 1018,1 25 0,0
25.05.2019 23:00:00 14,7 12,0 13,6 18,7 14,3 11 6 17 9 OZO 1017,8 25 0,0
25.05.2019 22:00:00 15,1 12,4 13,8 18,8 14,3 3 2 13 7 O 1017,5 25 0,0
25.05.2019 21:00:00 15,3 11,9 14,1 18,9 14,2 9 5 15 8 ZZO 1017,0 25 0,0
25.05.2019 20:00:00 16,4 12,7 15,0 18,9 14,2 9 5 18 10 Z 1016,5 25 0,0
25.05.2019 19:00:00 16,6 12,5 14,5 18,9 14,2 8 5 25 13 ZZW 1016,0 10 0,6
25.05.2019 18:00:00 18,1 10,2 17,7 18,8 14,2 20 11 31 17 NNW 1015,2 30 0,0
25.05.2019 17:00:00 21,3 7,9 23,2 18,6 14,2 11 6 24 13 N 1014,5 30 0,0
25.05.2019 16:00:00 21,1 9,7 23,4 18,3 14,2 15 8 28 15 N 1014,6 30 0,0
25.05.2019 15:00:00 20,6 11,2 18,0 18,1 14,2 13 7 42 23 NW 1014,4 20 0,0
25.05.2019 14:00:00 18,0 12,7 15,4 17,7 14,2 29 16 44 24 NNW 1014,8 10 0,2
25.05.2019 13:00:00 22,6 9,7 26,5 17,4 14,1 8 5 19 10 NW 1014,3 30 0,0
25.05.2019 12:00:00 21,6 12,7 23,6 17,1 14,1 5 3 20 11 NNO 1014,9 30 0,0
25.05.2019 11:00:00 20,2 10,0 25,7 16,9 14,1 10 5 19 10 NNO 1015,2 15 0,0
25.05.2019 10:00:00 18,9 10,7 20,7 16,8 14,1 6 3 12 7 NNW 1015,2 25 0,0
25.05.2019 09:00:00 17,5 11,3 18,7 16,9 14,1 3 2 8 4 NW 1015,3 25 0,0
25.05.2019 08:00:00 16,0 11,4 13,6 17,0 14,0 0 0 4 2 N 1015,3 25 0,0
25.05.2019 07:00:00 12,2 11,4 9,1 17,1 14,0 0 0 5 3 N 1015,5 23 0,0
25.05.2019 06:00:00 11,0 9,9 8,7 17,3 14,0 3 2 8 4 W 1015,2 12 0,0
25.05.2019 05:00:00 12,1 10,7 9,9 17,5 14,0 3 2 7 4 ONO 1014,8 20 0,0
25.05.2019 04:00:00 12,1 11,0 9,1 17,7 13,9 3 2 5 3 ZZW 1014,9 19 0,0
25.05.2019 03:00:00 11,4 10,1 9,2 17,8 13,9 4 2 5 3 WNW 1014,8 20 0,0
25.05.2019 02:00:00 13,0 10,2 9,9 18,0 13,9 3 1 7 4 W 1014,7 25 0,0
25.05.2019 01:00:00 15,7 10,9 13,3 18,1 13,9 2 1 8 5 ZZO 1014,5 41 0,0
25.05.2019 00:00:00 15,7 10,7 14,2 18,2 13,9 9 5 14 8 WZW 1014,5 40 0,0
24.05.2019 23:00:00 15,7 10,7 14,3 18,4 13,9 9 5 16 9 NW 1014,4 40 0,0
24.05.2019 22:00:00 16,5 10,1 15,0 18,5 13,9 6 3 26 14 NW 1014,1 45 0,0
24.05.2019 21:00:00 18,3 10,4 17,2 18,5 13,8 18 10 29 15 NNW 1013,2 25 0,0
24.05.2019 20:00:00 21,6 9,8 22,5 18,4 13,8 13 7 25 14 N 1012,4 25 0,0
24.05.2019 19:00:00 23,2 10,9 26,1 18,2 13,8 11 6 25 13 NO 1012,1 35 0,0
24.05.2019 18:00:00 23,6 9,9 28,5 18,0 13,8 11 6 24 13 N 1012,1 35 0,0
24.05.2019 17:00:00 23,7 10,4 26,7 17,6 13,8 10 5 27 15 NNO 1012,6 35 0,0
24.05.2019 16:00:00 23,4 10,8 27,0 17,3 13,8 9 5 19 10 NNW 1013,0 25 0,0
24.05.2019 15:00:00 22,5 10,6 25,9 16,9 13,8 11 6 21 12 NNO 1013,4 25 0,0
24.05.2019 14:00:00 22,3 11,1 27,1 16,5 13,8 7 4 17 9 N 1013,8 25 0,0
24.05.2019 13:00:00 21,5 10,9 26,2 16,3 13,8 6 3 16 9 NNO 1014,2 25 0,0
24.05.2019 12:00:00 20,3 10,4 23,0 16,0 13,7 4 2 18 10 NNW 1014,6 25 0,0
24.05.2019 11:00:00 18,9 9,9 23,2 15,9 13,7 7 4 15 8 N 1014,9 27 0,0
24.05.2019 10:00:00 18,1 10,2 18,3 15,8 13,7 6 4 15 8 ONO 1015,1 20 0,0
24.05.2019 09:00:00 16,0 9,4 16,2 15,8 13,7 4 2 11 6 ZO 1015,6 20 0,0
24.05.2019 08:00:00 13,7 9,7 11,0 16,0 13,7 5 3 15 8 ZZO 1015,8 20 0,0
24.05.2019 07:00:00 10,6 9,0 7,2 16,2 13,6 9 5 15 8 ZZO 1016,0 20 0,0
24.05.2019 06:00:00 8,9 8,0 6,6 16,3 13,6 6 3 13 7 ZZW 1016,2 15 0,0
24.05.2019 05:00:00 9,6 8,7 6,1 16,5 13,6 6 3 8 4 ZZO 1015,9 15 0,0
24.05.2019 04:00:00 9,9 8,8 6,3 16,7 13,6 4 2 6 3 ZO 1016,2 16 0,0
24.05.2019 03:00:00 10,6 9,2 8,5 16,9 13,6 3 1 5 3 ZZW 1016,2 14 0,0
24.05.2019 02:00:00 10,6 9,2 8,1 17,1 13,6 2 1 5 3 WNW 1016,5 16 0,0
24.05.2019 01:00:00 11,0 8,7 8,0 17,3 13,6 0 0 16 9 N 1016,6 12 0,0
24.05.2019 00:00:00 11,9 8,7 7,6 17,5 13,6 9 5 11 6 NNW 1016,6 20 0,0
23.05.2019 23:00:00 12,7 9,1 8,4 17,6 13,5 6 4 9 5 W 1016,4 30 0,0
23.05.2019 22:00:00 13,9 9,3 10,2 17,7 13,5 6 3 13 7 WNW 1016,1 35 0,0
23.05.2019 21:00:00 17,0 9,9 12,9 17,7 13,5 6 3 10 6 NW 1015,6 45 0,0
23.05.2019 20:00:00 21,0 8,9 22,5 17,7 13,5 6 4 18 10 N 1014,9 45 0,0
23.05.2019 19:00:00 22,0 8,5 25,7 17,4 13,5 8 4 17 9 NO 1014,8 45 0,0
23.05.2019 18:00:00 22,2 7,6 27,4 17,1 13,5 10 5 25 13 NNO 1015,3 45 0,0
23.05.2019 17:00:00 22,0 8,1 25,8 16,7 13,5 5 3 19 10 NW 1015,6 33 0,0
23.05.2019 16:00:00 21,5 8,7 25,7 16,2 13,5 6 4 21 11 W 1016,3 45 0,0
23.05.2019 15:00:00 20,8 8,1 24,5 15,8 13,5 12 6 29 16 N 1016,8 45 0,0
23.05.2019 14:00:00 20,4 8,1 23,2 15,4 13,5 8 4 22 12 N 1017,5 38 0,0
23.05.2019 13:00:00 19,4 6,8 22,9 15,0 13,5 10 5 22 12 N 1018,1 45 0,0
23.05.2019 12:00:00 18,1 7,5 23,3 14,7 13,4 10 6 20 11 N 1018,8 45 0,0
23.05.2019 11:00:00 16,9 8,1 22,4 14,6 13,4 5 3 20 11 NO 1019,1 45 0,0
23.05.2019 10:00:00 15,3 9,0 14,2 14,5 13,4 3 1 8 4 Z 1019,5 50 0,0
23.05.2019 09:00:00 12,5 8,8 11,0 14,7 13,4 3 2 9 5 W 1020,0 50 0,0
23.05.2019 08:00:00 9,9 8,0 8,0 14,8 13,4 2 1 5 3 WNW 1020,7 50 0,0
23.05.2019 07:00:00 7,6 7,5 3,0 15,0 13,4 4 2 6 4 WZW 1020,8 35 0,0
23.05.2019 06:00:00 4,6 4,5 2,4 15,2 13,4 0 0 6 3 N 1021,2 20 0,0
23.05.2019 05:00:00 5,0 4,7 2,5 15,4 13,4 4 2 5 3 WZW 1021,1 20 0,0
23.05.2019 04:00:00 6,0 5,7 3,0 15,6 13,4 2 1 3 2 WZW 1021,2 0,6 0,0
23.05.2019 03:00:00 7,0 6,7 3,3 15,8 13,4 2 1 5 3 WZW 1021,2 2,3 0,2
23.05.2019 02:00:00 6,6 6,0 4,1 16,0 13,4 4 2 6 3 ZW 1021,1 25 0,0
23.05.2019 01:00:00 7,6 6,5 5,4 16,2 13,3 4 2 10 6 W 1020,8 27 0,0
23.05.2019 00:00:00 9,1 7,9 6,1 16,3 13,3 2 1 9 5 Z 1020,6 40 0,0
22.05.2019 23:00:00 10,6 7,7 7,2 16,5 13,4 4 2 15 8 ZW 1020,4 40 0,0
22.05.2019 22:00:00 13,0 8,1 10,6 16,5 13,3 8 5 19 10 NNW 1020,0 40 0,0
22.05.2019 21:00:00 14,7 7,5 12,3 16,5 13,3 7 4 18 10 N 1019,1 40 0,0
22.05.2019 20:00:00 18,3 6,2 17,5 16,4 13,4 8 4 17 9 NNO 1018,5 56 0,0
22.05.2019 19:00:00 19,7 6,8 19,0 16,2 13,3 9 5 22 12 NNO 1018,2 40 0,0
22.05.2019 18:00:00 18,3 7,7 19,0 15,9 13,3 11 6 22 12 N 1018,4 30 0,0
22.05.2019 17:00:00 19,5 8,5 25,2 15,5 13,4 14 7 26 14 N 1018,3 30 0,0
22.05.2019 16:00:00 19,8 9,1 23,9 15,1 13,3 9 5 21 11 NNO 1018,2 30 0,0
22.05.2019 15:00:00 19,3 8,0 24,0 14,6 13,3 6 3 22 12 NNO 1018,7 30 0,0
22.05.2019 14:00:00 18,2 8,7 21,8 14,3 13,4 7 4 19 10 W 1019,1 30 0,0
22.05.2019 13:00:00 17,4 9,3 21,9 14,0 13,4 5 3 18 10 N 1019,4 20 0,0
22.05.2019 12:00:00 16,1 10,0 18,5 13,8 13,4 3 2 14 7 NNO 1019,6 15 0,0
22.05.2019 11:00:00 13,9 11,4 13,5 13,7 13,4 2 1 10 6 NO 1019,8 15 0,0
22.05.2019 10:00:00 11,6 11,0 13,0 13,6 13,4 5 3 9 5 W 1020,2 12 0,0
22.05.2019 09:00:00 11,3 11,1 10,7 13,7 13,4 5 3 10 6 WZW 1020,1 8 0,0
22.05.2019 08:00:00 9,5 9,5 9,9 13,7 13,4 4 2 8 5 NNW 1020,0 0,3 0,0
22.05.2019 07:00:00 9,2 9,2 7,9 13,8 13,4 5 3 8 4 W 1019,9 0,1 0,0
22.05.2019 06:00:00 7,6 7,5 5,3 13,9 13,4 4 2 5 3 W 1019,7 0,1 0,0
22.05.2019 05:00:00 7,8 7,7 5,7 14,1 13,4 3 2 8 4 WZW 1019,3 0,2 0,0
22.05.2019 04:00:00 8,5 8,4 5,9 14,2 13,4 4 2 10 6 OZO 1019,1 0,4 0,0
22.05.2019 03:00:00 9,4 9,1 5,7 14,3 13,4 3 2 9 5 WZW 1018,9 0,1 0,0
22.05.2019 02:00:00 9,6 9,1 7,2 14,3 13,4 6 4 10 6 ZW 1018,9 0,6 0,0
22.05.2019 01:00:00 11,5 11,2 9,5 14,4 13,4 5 3 9 5 WNW 1018,9 3,5 0,0
22.05.2019 00:00:00 11,3 10,8 10,1 14,4 13,4 5 3 8 5 WZW 1018,8 6 0,0
21.05.2019 23:00:00 12,1 11,5 11,1 14,5 13,4 4 2 9 5 W 1018,4 7 0,0
21.05.2019 22:00:00 12,4 11,8 11,9 14,5 13,4 6 3 10 5 ZW 1017,9 7 0,0
21.05.2019 21:00:00 12,7 11,8 12,0 14,5 13,4 6 3 16 9 Z 1017,1 8 0,0
21.05.2019 20:00:00 12,9 12,1 12,3 14,5 13,4 5 3 18 10 ZZW 1016,6 10 2,0
21.05.2019 19:00:00 13,7 11,6 13,7 14,5 13,4 6 4 16 8 ONO 1016,0 15 0,0
21.05.2019 18:00:00 13,7 11,7 13,6 14,4 13,4 5 3 10 5 O 1015,7 12 0,0
21.05.2019 17:00:00 14,0 12,2 13,3 14,4 13,4 5 3 17 9 O 1015,5 12 0,0
21.05.2019 16:00:00 14,0 12,0 13,3 14,4 13,4 7 4 16 9 NNO 1015,2 8 0,2
21.05.2019 15:00:00 14,4 11,0 13,4 14,4 13,4 11 6 42 23 W 1014,8 20 0,0
21.05.2019 14:00:00 13,9 10,3 14,3 14,3 13,4 27 15 42 23 W 1014,6 20 0,2
21.05.2019 13:00:00 13,7 10,5 13,5 14,3 13,4 23 13 46 25 WZW 1014,4 15 0,0
21.05.2019 12:00:00 12,8 10,2 13,1 14,2 13,4 31 17 48 26 WZW 1014,2 20 0,0
21.05.2019 11:00:00 13,2 10,0 14,6 14,2 13,4 27 15 47 25 WZW 1013,9 25 0,0
21.05.2019 10:00:00 12,8 9,8 13,8 14,2 13,4 26 14 42 23 WZW 1013,6 20 0,0
21.05.2019 09:00:00 12,6 9,8 12,1 14,3 13,4 27 14 47 25 WZW 1013,3 24 0,0
21.05.2019 08:00:00 11,7 9,3 11,3 14,3 13,4 25 13 45 24 W 1012,9 15 0,0
21.05.2019 07:00:00 11,3 9,2 10,6 14,4 13,3 26 14 41 22 WZW 1012,3 15 0,0
21.05.2019 06:00:00 11,3 9,0 11,0 14,5 13,4 25 14 44 24 WZW 1012,0 15 0,0
21.05.2019 05:00:00 11,6 9,3 11,2 14,6 13,4 21 11 39 21 WZW 1012,0 15 0,0
21.05.2019 04:00:00 11,5 9,4 11,2 14,7 13,4 23 13 40 22 WZW 1012,0 19 0,0
21.05.2019 03:00:00 11,8 9,4 11,0 14,8 13,3 24 13 40 21 WZW 1011,8 24 0,0
21.05.2019 02:00:00 12,0 9,4 11,6 14,9 13,3 20 11 37 20 W 1011,7 30 0,0
21.05.2019 01:00:00 12,2 9,9 11,6 14,9 13,3 23 12 41 22 W 1011,6 30 0,0
21.05.2019 00:00:00 12,3 10,4 11,9 15,1 13,3 26 14 45 24 WZW 1011,4 15 0,0
20.05.2019 23:00:00 12,6 10,5 12,4 15,2 13,3 29 16 49 27 WZW 1010,9 15 0,0
20.05.2019 22:00:00 12,8 10,5 12,5 15,2 13,3 29 16 47 25 W 1010,1 15 0,0
20.05.2019 21:00:00 13,2 10,7 12,9 15,2 13,3 25 14 48 26 W 1009,6 15 0,0
20.05.2019 20:00:00 13,8 11,1 13,7 15,2 13,3 28 15 50 27 W 1008,9 15 0,0
20.05.2019 19:00:00 14,1 11,4 14,1 15,2 13,3 29 16 51 28 W 1008,1 15 0,0
20.05.2019 18:00:00 14,5 12,0 14,3 15,1 13,3 31 17 54 29 W 1007,6 12 0,0
20.05.2019 17:00:00 16,0 12,5 14,2 15,0 13,3 33 18 53 28 W 1007,1 12 0,0
20.05.2019 16:00:00 14,7 12,0 13,9 14,9 13,2 31 17 49 26 WZW 1007,1 8 0,0
20.05.2019 15:00:00 15,2 12,3 15,6 14,8 13,2 32 17 49 26 WZW 1007,2 12 0,0

tt = temperatuur
td = dauwpunt
tt 5cm = temperatuur 5cm
tt -20cm = temperatuur -20cm
tt -100cm = temperatuur -100cm
ff = windsnelheid
fx = windstoten
dd = windrichting
ppp = luchtdruk
vv = zicht
rr = neerslag

Weerstations in de omgeving